Flag for Germany Weather past 2 weeks in Sankt Augustin, North Rhine-Westphalia, Germany

Now
50 °F

Sunny.


Feels Like: 47 °F
Forecast: 42 / 51 °F
Wind: 7 mph from Southeast

Location: Koeln / Bonn


UV Index: 3 (Moderate)

Visibility: 10 mi


Pressure: 30.24 "Hg

Humidity: 50%

Dew point: 32 °F

Location of Sankt AugustinLocation

Historic Weather in Sankt Augustin

°F

Sankt Augustin temperature yesterday

Maximum temperature yesterday: 61 °F (at 4:50 PM)
Minimum temperature yesterday: 28 °F (at 6:20 AM)
Average temperature yesterday: 47 °F

Past Weeks' High & Low Weather Summary

 TemperatureHumidityPressure
High72 °F (Apr 2, 1:50 PM)100% (Apr 6, 4:20 AM)30.45 "Hg (Apr 6, 4:20 AM)
Low28 °F (Apr 16, 6:20 AM)27% (Apr 16, 5:50 PM)29.62 "Hg (Apr 3, 3:50 AM)
Average53 °F68%30.04 "Hg
* Reported Apr 2 9:20 AM — Apr 17 9:20 AM, Sankt Augustin, Weather by CustomWeather, © 2014

Note: Actual official high and low records may vary slightly from our data, if they occured in-between our weather recording intervals... More about our weather records

Advertising

Historic Weather Conditions — Data for Previous 24 hours

 ConditionsComfort  
Time TempWeatherWind HumidityBarometerVisibility
9:20 AM
Apr 17
48 °FSunny.8 mph50%30.24 "Hg10 mi
8:50 AM46 °FSunny.8 mph53%30.24 "Hg10 mi
8:20 AM45 °FSunny.5 mph57%30.27 "Hg10 mi
7:50 AM43 °FSunny.5 mph61%30.27 "Hg10 mi
7:20 AM39 °FClear.6 mph70%30.27 "Hg10 mi
6:50 AM39 °FClear.5 mph70%30.27 "Hg10 mi
6:20 AM41 °FClear.5 mph66%30.27 "Hg10 mi
5:50 AM41 °FClear.5 mph66%30.27 "Hg10 mi
5:20 AM41 °FClear.5 mph66%30.30 "Hg10 mi
4:50 AM41 °FClear.5 mph66%30.30 "Hg10 mi
4:20 AM41 °FClear.6 mph66%30.30 "Hg10 mi
3:50 AM41 °FClear.5 mph66%30.30 "Hg10 mi
3:20 AM41 °FClear.6 mph66%30.30 "Hg10 mi
2:50 AM39 °FClear.5 mph75%30.30 "Hg10 mi
2:20 AM41 °FClear.5 mph70%30.33 "Hg10 mi
1:50 AM41 °FClear.3 mph70%30.33 "Hg10 mi
1:20 AM45 °FClear.5 mph57%30.33 "Hg10 mi
12:50 AM45 °FClear.3 mph61%30.33 "Hg10 mi
12:20 AM46 °FClear.6 mph53%30.33 "Hg10 mi
11:50 PM
Apr 16
46 °FClear.6 mph53%30.33 "Hg10 mi
11:20 PM48 °FClear.7 mph50%30.33 "Hg10 mi
10:50 PM48 °FClear.7 mph50%30.33 "Hg10 mi
10:20 PM50 °FClear.7 mph47%30.33 "Hg10 mi
9:50 PM50 °FClear.5 mph47%30.33 "Hg10 mi
9:20 PM52 °FSunny.6 mph44%30.33 "Hg10 mi
8:50 PM52 °FSunny.5 mph44%30.33 "Hg10 mi
8:20 PM54 °FSunny.7 mph38%30.33 "Hg10 mi
7:50 PM55 °FSunny.8 mph38%30.33 "Hg10 mi
7:20 PM57 °FSunny.10 mph31%30.33 "Hg10 mi
6:50 PM59 °FSunny.7 mph31%30.33 "Hg10 mi
6:20 PM59 °FSunny.3 mph29%30.33 "Hg10 mi
5:50 PM61 °FPassing clouds.5 mph27%30.33 "HgN/A
5:20 PM61 °FSunny.3 mph29%30.33 "Hg10 mi
4:50 PM61 °FPassing clouds.6 mph29%30.36 "HgN/A
4:20 PM59 °FPassing clouds.7 mph29%30.36 "HgN/A
3:50 PM59 °FSunny.7 mph29%30.36 "Hg10 mi
3:20 PM59 °FPassing clouds.6 mph31%30.39 "HgN/A
2:50 PM57 °FPassing clouds.7 mph29%30.39 "HgN/A
2:20 PM57 °FPassing clouds.6 mph31%30.39 "HgN/A
1:50 PM55 °FPassing clouds.7 mph31%30.39 "HgN/A
1:20 PM55 °FPassing clouds.5 mph36%30.39 "HgN/A
12:50 PM54 °FPassing clouds.5 mph35%30.42 "HgN/A
12:20 PM54 °FSunny.6 mph38%30.42 "Hg10 mi
11:50 AM52 °FSunny.7 mph41%30.42 "Hg10 mi
11:20 AM50 °FSunny.6 mph43%30.42 "Hg10 mi
10:50 AM48 °FPassing clouds.5 mph54%30.42 "HgN/A
10:20 AM46 °FPassing clouds.5 mph66%30.45 "HgN/A
Weather by CustomWeather, © 2014

See weather overview